TimeEST,TemperatureF,Dew PointF,Humidity,Sea Level PressureIn,VisibilityMPH,Wind Direction,Wind SpeedMPH,Gust SpeedMPH,PrecipitationIn,Events,Conditions,WindDirDegrees,DateUTC
12:53 AM,41.0,28.9,62,29.99,10.0,Calm,Calm,-,N/A,,Overcast,0,2013-12-02 05:53:00
1:53 AM,39.9,30.9,70,29.98,10.0,Calm,Calm,-,N/A,,Overcast,0,2013-12-02 06:53:00
2:53 AM,39.0,30.9,73,29.96,10.0,Calm,Calm,-,N/A,,Overcast,0,2013-12-02 07:53:00
3:53 AM,41.0,28.9,62,29.94,10.0,Calm,Calm,-,N/A,,Overcast,0,2013-12-02 08:53:00
4:53 AM,39.9,30.0,68,29.93,10.0,Calm,Calm,-,N/A,,Overcast,0,2013-12-02 09:53:00
5:53 AM,39.9,32.0,73,29.93,10.0,Calm,Calm,-,N/A,,Overcast,0,2013-12-02 10:53:00
6:53 AM,39.0,32.0,76,29.93,10.0,Calm,Calm,-,N/A,,Overcast,0,2013-12-02 11:53:00
7:53 AM,41.0,32.0,70,29.94,10.0,Calm,Calm,-,N/A,,Overcast,0,2013-12-02 12:53:00
8:53 AM,41.0,33.1,73,29.95,9.0,Calm,Calm,-,N/A,,Overcast,0,2013-12-02 13:53:00
9:53 AM,42.1,30.9,65,29.94,10.0,NE,8.1,-,N/A,,Overcast,50,2013-12-02 14:53:00
10:53 AM,44.1,30.0,58,29.94,10.0,NE,4.6,-,N/A,,Overcast,50,2013-12-02 15:53:00
11:53 AM,44.1,30.9,60,29.89,8.0,NE,5.8,-,N/A,,Overcast,50,2013-12-02 16:53:00
12:53 PM,46.0,30.9,56,29.88,10.0,NNE,3.5,-,N/A,,Overcast,30,2013-12-02 17:53:00
1:53 PM,46.9,30.9,54,29.87,10.0,North,3.5,-,N/A,,Overcast,10,2013-12-02 18:53:00
2:53 PM,46.9,32.0,56,29.87,10.0,NNE,4.6,-,N/A,,Overcast,30,2013-12-02 19:53:00
3:53 PM,46.0,32.0,58,29.87,10.0,Calm,Calm,-,N/A,,Overcast,0,2013-12-02 20:53:00
4:53 PM,45.0,32.0,60,29.88,10.0,Calm,Calm,-,N/A,,Overcast,0,2013-12-02 21:53:00
5:53 PM,44.1,32.0,63,29.88,10.0,Calm,Calm,-,N/A,,Overcast,0,2013-12-02 22:53:00
6:53 PM,42.1,33.1,70,29.87,10.0,Calm,Calm,-,N/A,,Overcast,0,2013-12-02 23:53:00
7:53 PM,43.0,32.0,65,29.88,10.0,Calm,Calm,-,N/A,,Overcast,0,2013-12-03 00:53:00
8:53 PM,42.1,32.0,67,29.88,10.0,Calm,Calm,-,N/A,,Overcast,0,2013-12-03 01:53:00
9:53 PM,39.9,32.0,73,29.88,10.0,Calm,Calm,-,N/A,,Partly Cloudy,0,2013-12-03 02:53:00
10:53 PM,39.9,33.1,77,29.88,10.0,Calm,Calm,-,N/A,,Overcast,0,2013-12-03 03:53:00
11:53 PM,39.0,33.1,79,29.88,10.0,Calm,Calm,-,N/A,,Overcast,0,2013-12-03 04:53:00